Location: Coed Ely
(51.5661°N, 3.4150°W)
Time: 02:01:01
(UTC+00:00)

Meteor 2-21 - Pass Details

Date: 28 January 2021
Orbit: 935 x 966 km, 82.6° (Epoch: 28 February)

Event Time Altitude Azimuth Distance (km) Brightness Sun altitude
Rises 19:32:18 0° 180° (S) 3,595 7.5 -24.1°
Reaches altitude 10° 19:34:47 10° 179° (S) 2,659 6.7 -24.5°
Maximum altitude 19:40:49 71° 96° (E) 1,004 4.3 -25.4°
Drops below altitude 10° 19:46:58 10° 14° (NNE) 2,699 6.7 -26.4°
Sets 19:49:29 0° 13° (NNE) 3,654 7.4 -26.8°
